QPF
0.00 0.00 0.00 0.00 0.00 0.00 0.00 0.00 0.00 0.00 0.00 0.00 0.00 0.00 0.01 0.01 0.01 0.01 0.00 0.00 0.00 0.00 0.00 0.00 0.00 0.00 0.00 0.00 0.00 0.00 0.00 0.00 0.01 0.01 0.01 0.02 0.03 0.02 0.02 0.02 0.01 0.03 0.02 0.03
0.00 0.00 0.00 0.00 0.00 0.00 0.00 0.00 0.00 0.00 0.00 0.00 0.01 0.01 0.01 0.01 0.01 0.01 0.01 0.01 0.00 0.00 0.00 0.00 0.00 0.00 0.00 0.00 0.00 0.00 0.00 0.00 0.00 0.00 0.01 0.02 0.03 0.02 0.02 0.01 0.02 0.03 0.03 0.02
0.00 0.00 0.00 0.00 0.00 0.00 0.00 0.00 0.00 0.00 0.00 0.00 0.00 0.01 0.02 0.01 0.01 0.01 0.01 0.01 0.00 0.00 0.00 0.00 0.00 0.00 0.00 0.01 0.01 0.01 0.01 0.01 0.01 0.01 0.01 0.01 0.02 0.02 0.02 0.03 0.04 0.04 0.03 0.04
0.00 0.00 0.00 0.00 0.00 0.00 0.00 0.00 0.00 0.00 0.00 0.00 0.00 0.01 0.01 0.01 0.01 0.00 0.00 0.01 0.00 0.00 0.00 0.00 0.00 0.00 0.00 0.01 0.01 0.01 0.01 0.01 0.01 0.01 0.01 0.02 0.03 0.02 0.03 0.04 0.04 0.03 0.03 0.04
0.00 0.00 0.00 0.00 0.00 0.00 0.00 0.00 0.00 0.00 0.00 0.00 0.00 0.00 0.00 0.00 0.00 0.00 0.00 0.01 0.00 0.00 0.00 0.00 0.00 0.00 0.00 0.01 0.01 0.01 0.02 0.02 0.02 0.03 0.03 0.03 0.03 0.03 0.04 0.03 0.02 0.02 0.02 0.03
0.00 0.00 0.00 0.00 0.00 0.00 0.00 0.00 0.00 0.00 0.00 0.00 0.00 0.00 0.00 0.00 0.00 0.00 0.00 0.01 0.00 0.00 0.00 0.00 0.01 0.01 0.01 0.00 0.00 0.01 0.02 0.03 0.04 0.04 0.04 0.03 0.02 0.02 0.03 0.02 0.01 0.02 0.03 0.03
0.00 0.00 0.00 0.00 0.00 0.00 0.00 0.00 0.00 0.00 0.00 0.00 0.00 0.00 0.00 0.00 0.00 0.00 0.01 0.01 0.00 0.01 0.01 0.01 0.01 0.01 0.01 0.00 0.00 0.01 0.05 0.07 0.06 0.05 0.05 0.03 0.02 0.03 0.02 0.01 0.01 0.02 0.04 0.04
0.00 0.00 0.00 0.00 0.00 0.00 0.00 0.00 0.00 0.00 0.00 0.00 0.00 0.00 0.00 0.00 0.00 0.00 0.00 0.01 0.01 0.01 0.01 0.01 0.01 0.01 0.01 0.01 0.01 0.02 0.06 0.08 0.08 0.07 0.05 0.04 0.04 0.05 0.03 0.02 0.01 0.02 0.04 0.03
0.00 0.00 0.00 0.00 0.00 0.00 0.00 0.00 0.00 0.00 0.00 0.00 0.00 0.00 0.00 0.00 0.00 0.00 0.00 0.01 0.01 0.01 0.02 0.01 0.01 0.01 0.01 0.02 0.04 0.03 0.04 0.10 0.09 0.07 0.05 0.04 0.07 0.06 0.03 0.03 0.02 0.02 0.02 0.02
0.00 0.00 0.00 0.00 0.00 0.00 0.00 0.00 0.00 0.00 0.00 0.00 0.00 0.00 0.00 0.00 0.00 0.01 0.00 0.01 0.01 0.02 0.02 0.01 0.01 0.01 0.01 0.03 0.06 0.05 0.04 0.07 0.09 0.04 0.03 0.04 0.04 0.03 0.03 0.03 0.03 0.02 0.02 0.03
0.00 0.00 0.00 0.00 0.00 0.00 0.00 0.00 0.00 0.00 0.00 0.00 0.00 0.00 0.00 0.00 0.01 0.01 0.01 0.01 0.02 0.03 0.02 0.01 0.01 0.02 0.03 0.03 0.03 0.04 0.04 0.03 0.04 0.04 0.04 0.05 0.04 0.04 0.03 0.02 0.03 0.03 0.03 0.04
0.00 0.00 0.00 0.00 0.00 0.00 0.00 0.00 0.00 0.00 0.00 0.00 0.00 0.00 0.00 0.01 0.01 0.01 0.02 0.03 0.02 0.03 0.03 0.02 0.02 0.02 0.03 0.05 0.04 0.04 0.04 0.04 0.04 0.05 0.06 0.05 0.04 0.04 0.04 0.03 0.03 0.03 0.05 0.05
0.00 0.00 0.00 0.00 0.00 0.00 0.00 0.00 0.00 0.00 0.00 0.00 0.00 0.00 0.01 0.01 0.01 0.01 0.01 0.01 0.02 0.02 0.03 0.03 0.03 0.05 0.04 0.04 0.04 0.03 0.04 0.04 0.05 0.07 0.06 0.05 0.05 0.05 0.05 0.05 0.05 0.07 0.07 0.07
0.00 0.00 0.00 0.00 0.00 0.00 0.00 0.00 0.00 0.00 0.00 0.00 0.00 0.00 0.01 0.02 0.01 0.01 0.00 0.00 0.01 0.02 0.03 0.03 0.03 0.04 0.03 0.04 0.05 0.06 0.04 0.04 0.05 0.05 0.05 0.05 0.06 0.06 0.05 0.05 0.05 0.05 0.06 0.05
0.00 0.00 0.00 0.00 0.00 0.00 0.00 0.00 0.00 0.00 0.00 0.00 0.00 0.00 0.01 0.01 0.01 0.01 0.01 0.01 0.01 0.02 0.03 0.03 0.02 0.03 0.03 0.03 0.03 0.04 0.04 0.04 0.05 0.06 0.06 0.07 0.06 0.05 0.05 0.06 0.05 0.05 0.06 0.05
0.00 0.00 0.00 0.00 0.00 0.00 0.00 0.00 0.00 0.00 0.00 0.00 0.00 0.00 0.01 0.01 0.01 0.01 0.01 0.01 0.01 0.01 0.01 0.01 0.02 0.03 0.03 0.02 0.03 0.03 0.03 0.04 0.05 0.06 0.07 0.09 0.06 0.05 0.06 0.06 0.05 0.04 0.05 0.06
0.00 0.00 0.00 0.00 0.00 0.00 0.00 0.00 0.00 0.00 0.00 0.00 0.01 0.01 0.01 0.01 0.01 0.01 0.01 0.02 0.02 0.02 0.01 0.01 0.02 0.03 0.03 0.03 0.04 0.05 0.05 0.06 0.06 0.05 0.05 0.06 0.06 0.07 0.07 0.06 0.04 0.04 0.07 0.10
0.00 0.00 0.00 0.00 0.00 0.00 0.00 0.00 0.00 0.00 0.00 0.00 0.00 0.01 0.01 0.01 0.01 0.01 0.01 0.01 0.02 0.01 0.02 0.02 0.03 0.05 0.07 0.07 0.08 0.09 0.08 0.07 0.08 0.08 0.06 0.05 0.07 0.08 0.09 0.08 0.06 0.06 0.07 0.07
0.00 0.00 0.00 0.00 0.00 0.00 0.00 0.00 0.00 0.00 0.00 0.00 0.00 0.00 0.01 0.01 0.01 0.01 0.01 0.01 0.02 0.02 0.03 0.03 0.04 0.05 0.12 0.10 0.09 0.08 0.07 0.08 0.09 0.09 0.08 0.08 0.09 0.10 0.09 0.08 0.08 0.09 0.11 0.10
0.00 0.00 0.00 0.00 0.00 0.00 0.00 0.00 0.00 0.00 0.01 0.01 0.01 0.01 0.01 0.02 0.01 0.01 0.01 0.00 0.01 0.01 0.02 0.04 0.05 0.05 0.07 0.06 0.06 0.07 0.07 0.08 0.08 0.07 0.07 0.10 0.11 0.13 0.12 0.10 0.11 0.13 0.15 0.14
0.00 0.00 0.00 0.00 0.00 0.00 0.00 0.00 0.00 0.00 0.00 0.01 0.01 0.01 0.01 0.01 0.01 0.01 0.01 0.00 0.00 0.01 0.02 0.04 0.08 0.05 0.05 0.05 0.06 0.07 0.09 0.10 0.10 0.11 0.12 0.15 0.18 0.19 0.17 0.16 0.16 0.15 0.18 0.21
0.00 0.00 0.00 0.00 0.00 0.00 0.01 0.00 0.00 0.00 0.00 0.01 0.01 0.01 0.01 0.01 0.01 0.01 0.01 0.01 0.01 0.01 0.02 0.04 0.08 0.05 0.04 0.04 0.06 0.07 0.08 0.11 0.13 0.14 0.17 0.20 0.23 0.25 0.23 0.21 0.20 0.20 0.19 0.18
0.01 0.00 0.00 0.00 0.00 0.01 0.01 0.01 0.00 0.01 0.01 0.01 0.01 0.01 0.01 0.02 0.02 0.02 0.02 0.01 0.01 0.02 0.02 0.04 0.06 0.05 0.04 0.04 0.05 0.06 0.08 0.11 0.14 0.16 0.19 0.22 0.21 0.23 0.29 0.29 0.28 0.26 0.26 0.24
0.01 0.01 0.01 0.00 0.01 0.01 0.01 0.01 0.01 0.02 0.02 0.02 0.02 0.02 0.02 0.02 0.02 0.02 0.02 0.01 0.01 0.01 0.02 0.03 0.04 0.04 0.05 0.06 0.07 0.07 0.08 0.09 0.09 0.10 0.10 0.10 0.10 0.11 0.15 0.20 0.21 0.19 0.16 0.14
0.01 0.01 0.01 0.01 0.01 0.02 0.02 0.02 0.03 0.04 0.04 0.04 0.04 0.03 0.03 0.02 0.02 0.01 0.01 0.01 0.01 0.01 0.01 0.01 0.02 0.03 0.04 0.06 0.08 0.08 0.08 0.10 0.10 0.08 0.09 0.09 0.07 0.07 0.09 0.11 0.12 0.11 0.11 0.12
0.02 0.02 0.02 0.01 0.02 0.02 0.03 0.04 0.04 0.05 0.05 0.05 0.04 0.04 0.04 0.03 0.02 0.02 0.01 0.01 0.01 0.01 0.00 0.01 0.01 0.02 0.03 0.05 0.09 0.09 0.07 0.08 0.11 0.11 0.11 0.11 0.09 0.07 0.09 0.10 0.11 0.11 0.11 0.10
MSLP
1012.57 1013.39 1014.06 1014.53 1014.81 1014.92 1014.90 1014.79 1014.63 1014.44 1014.22 1013.97 1013.69 1013.39 1013.09 1012.79 1012.53 1012.34 1012.23 1012.21 1012.26 1012.39 1012.55 1012.72 1012.89 1013.06 1013.22 1013.40 1013.60 1013.85 1014.16 1014.51 1014.91 1015.31 1015.71 1016.07 1016.37 1016.62 1016.81 1016.96 1017.09 1017.22 1017.37 1017.55
1013.28 1013.92 1014.39 1014.70 1014.87 1014.96 1015.01 1015.05 1015.07 1015.07 1015.00 1014.85 1014.58 1014.18 1013.70 1013.16 1012.63 1012.18 1011.85 1011.67 1011.64 1011.74 1011.93 1012.17 1012.41 1012.63 1012.83 1013.03 1013.24 1013.50 1013.82 1014.22 1014.68 1015.17 1015.66 1016.10 1016.47 1016.74 1016.93 1017.05 1017.12 1017.19 1017.29 1017.44
1013.81 1014.23 1014.49 1014.64 1014.74 1014.84 1015.00 1015.23 1015.48 1015.71 1015.84 1015.79 1015.53 1015.04 1014.35 1013.54 1012.71 1011.95 1011.36 1010.99 1010.84 1010.90 1011.11 1011.40 1011.72 1012.02 1012.29 1012.53 1012.78 1013.07 1013.44 1013.89 1014.42 1014.99 1015.56 1016.08 1016.51 1016.82 1017.01 1017.10 1017.14 1017.16 1017.22 1017.34
1014.17 1014.37 1014.43 1014.44 1014.49 1014.65 1014.96 1015.41 1015.93 1016.42 1016.75 1016.82 1016.56 1015.96 1015.06 1013.95 1012.79 1011.71 1010.83 1010.23 1009.93 1009.92 1010.13 1010.48 1010.89 1011.28 1011.63 1011.94 1012.25 1012.58 1013.00 1013.50 1014.09 1014.73 1015.37 1015.96 1016.44 1016.79 1016.99 1017.08 1017.09 1017.09 1017.12 1017.21
1014.41 1014.39 1014.29 1014.20 1014.24 1014.49 1014.98 1015.68 1016.47 1017.21 1017.75 1017.93 1017.67 1016.95 1015.83 1014.43 1012.93 1011.51 1010.33 1009.48 1009.02 1008.93 1009.13 1009.52 1010.00 1010.48 1010.93 1011.32 1011.69 1012.07 1012.52 1013.06 1013.69 1014.37 1015.06 1015.70 1016.22 1016.60 1016.83 1016.93 1016.94 1016.93 1016.94 1017.03
1014.56 1014.39 1014.16 1014.02 1014.10 1014.46 1015.14 1016.07 1017.12 1018.09 1018.79 1019.06 1018.78 1017.95 1016.62 1014.95 1013.14 1011.41 1009.94 1008.87 1008.24 1008.05 1008.23 1008.65 1009.19 1009.75 1010.27 1010.73 1011.15 1011.56 1012.03 1012.58 1013.22 1013.91 1014.62 1015.28 1015.84 1016.24 1016.50 1016.61 1016.64 1016.64 1016.66 1016.75
1014.69 1014.40 1014.11 1013.97 1014.10 1014.60 1015.45 1016.58 1017.83 1018.98 1019.81 1020.13 1019.83 1018.90 1017.40 1015.50 1013.44 1011.45 1009.74 1008.47 1007.70 1007.42 1007.55 1007.97 1008.55 1009.16 1009.73 1010.23 1010.67 1011.10 1011.56 1012.09 1012.70 1013.37 1014.07 1014.72 1015.29 1015.72 1015.99 1016.14 1016.19 1016.21 1016.25 1016.35
1014.80 1014.46 1014.16 1014.06 1014.28 1014.88 1015.87 1017.15 1018.53 1019.78 1020.68 1021.02 1020.69 1019.68 1018.06 1016.02 1013.79 1011.63 1009.76 1008.35 1007.46 1007.10 1007.18 1007.59 1008.16 1008.77 1009.36 1009.86 1010.30 1010.70 1011.12 1011.60 1012.15 1012.78 1013.43 1014.06 1014.62 1015.05 1015.35 1015.53 1015.62 1015.67 1015.73 1015.85
1014.88 1014.55 1014.30 1014.27 1014.57 1015.26 1016.33 1017.68 1019.10 1020.38 1021.28 1021.60 1021.25 1020.20 1018.53 1016.43 1014.14 1011.92 1009.99 1008.51 1007.56 1007.13 1007.16 1007.52 1008.05 1008.63 1009.17 1009.63 1010.02 1010.37 1010.72 1011.13 1011.61 1012.17 1012.77 1013.35 1013.89 1014.32 1014.63 1014.83 1014.95 1015.03 1015.12 1015.25
1014.91 1014.65 1014.48 1014.53 1014.90 1015.65 1016.73 1018.06 1019.44 1020.65 1021.49 1021.78 1021.40 1020.36 1018.73 1016.68 1014.45 1012.28 1010.39 1008.92 1007.96 1007.50 1007.47 1007.75 1008.19 1008.69 1009.15 1009.53 1009.84 1010.11 1010.38 1010.70 1011.10 1011.58 1012.12 1012.66 1013.16 1013.58 1013.90 1014.11 1014.25 1014.35 1014.45 1014.59
1014.86 1014.71 1014.65 1014.79 1015.21 1015.95 1016.97 1018.19 1019.44 1020.53 1021.26 1021.48 1021.10 1020.12 1018.61 1016.72 1014.67 1012.67 1010.91 1009.54 1008.62 1008.14 1008.04 1008.22 1008.55 1008.92 1009.26 1009.53 1009.73 1009.90 1010.08 1010.33 1010.65 1011.06 1011.53 1012.02 1012.49 1012.89 1013.20 1013.42 1013.56 1013.67 1013.77 1013.89
1014.71 1014.69 1014.76 1014.98 1015.42 1016.10 1017.01 1018.06 1019.12 1020.02 1020.61 1020.76 1020.40 1019.53 1018.21 1016.56 1014.78 1013.05 1011.51 1010.29 1009.44 1008.96 1008.80 1008.86 1009.04 1009.26 1009.44 1009.58 1009.66 1009.73 1009.84 1010.01 1010.27 1010.62 1011.04 1011.49 1011.92 1012.29 1012.58 1012.79 1012.92 1013.01 1013.08 1013.19
1014.49 1014.62 1014.80 1015.09 1015.52 1016.11 1016.86 1017.69 1018.51 1019.20 1019.63 1019.72 1019.40 1018.68 1017.60 1016.27 1014.82 1013.41 1012.14 1011.10 1010.36 1009.88 1009.65 1009.58 1009.60 1009.64 1009.66 1009.65 1009.62 1009.60 1009.63 1009.75 1009.97 1010.28 1010.66 1011.07 1011.46 1011.80 1012.06 1012.23 1012.33 1012.39 1012.43 1012.48
1014.26 1014.53 1014.81 1015.13 1015.52 1016.00 1016.56 1017.15 1017.73 1018.19 1018.48 1018.51 1018.26 1017.71 1016.91 1015.92 1014.83 1013.76 1012.77 1011.94 1011.30 1010.83 1010.52 1010.32 1010.16 1010.02 1009.88 1009.73 1009.59 1009.50 1009.48 1009.57 1009.75 1010.04 1010.38 1010.75 1011.10 1011.40 1011.62 1011.75 1011.80 1011.81 1011.80 1011.80
1014.08 1014.46 1014.81 1015.15 1015.49 1015.84 1016.20 1016.56 1016.89 1017.16 1017.31 1017.31 1017.13 1016.77 1016.24 1015.59 1014.86 1014.11 1013.40 1012.76 1012.21 1011.75 1011.36 1011.02 1010.70 1010.40 1010.10 1009.83 1009.60 1009.45 1009.39 1009.45 1009.62 1009.88 1010.19 1010.52 1010.83 1011.07 1011.24 1011.32 1011.32 1011.27 1011.20 1011.15
1014.02 1014.47 1014.86 1015.19 1015.45 1015.67 1015.84 1015.99 1016.12 1016.21 1016.26 1016.24 1016.14 1015.96 1015.69 1015.34 1014.93 1014.48 1014.00 1013.53 1013.05 1012.58 1012.12 1011.66 1011.20 1010.75 1010.32 1009.95 1009.66 1009.46 1009.38 1009.42 1009.56 1009.79 1010.07 1010.36 1010.61 1010.80 1010.91 1010.93 1010.89 1010.79 1010.66 1010.55
1014.09 1014.57 1014.97 1015.26 1015.45 1015.54 1015.55 1015.53 1015.49 1015.44 1015.41 1015.39 1015.37 1015.34 1015.29 1015.19 1015.04 1014.83 1014.54 1014.19 1013.78 1013.30 1012.77 1012.21 1011.64 1011.08 1010.56 1010.12 1009.77 1009.54 1009.44 1009.46 1009.58 1009.77 1010.00 1010.24 1010.43 1010.56 1010.62 1010.60 1010.50 1010.36 1010.20 1010.04
1014.30 1014.76 1015.13 1015.36 1015.46 1015.44 1015.33 1015.18 1015.01 1014.88 1014.80 1014.78 1014.83 1014.93 1015.03 1015.12 1015.16 1015.12 1014.97 1014.71 1014.34 1013.86 1013.29 1012.66 1012.02 1011.39 1010.82 1010.33 1009.95 1009.70 1009.58 1009.57 1009.65 1009.80 1009.98 1010.15 1010.28 1010.36 1010.37 1010.31 1010.19 1010.02 1009.84 1009.66
1014.57 1014.98 1015.28 1015.44 1015.46 1015.35 1015.15 1014.90 1014.66 1014.47 1014.37 1014.37 1014.47 1014.64 1014.86 1015.07 1015.24 1015.30 1015.25 1015.05 1014.71 1014.23 1013.65 1013.00 1012.33 1011.68 1011.09 1010.59 1010.20 1009.93 1009.79 1009.74 1009.78 1009.86 1009.97 1010.08 1010.15 1010.19 1010.16 1010.08 1009.96 1009.79 1009.61 1009.42
1014.82 1015.15 1015.36 1015.44 1015.38 1015.20 1014.94 1014.64 1014.36 1014.15 1014.05 1014.06 1014.19 1014.42 1014.69 1014.98 1015.21 1015.34 1015.34 1015.19 1014.88 1014.43 1013.87 1013.24 1012.58 1011.95 1011.37 1010.88 1010.50 1010.22 1010.04 1009.95 1009.93 1009.95 1009.99 1010.03 1010.06 1010.05 1010.01 1009.93 1009.82 1009.68 1009.52 1009.34
1014.96 1015.18 1015.29 1015.29 1015.16 1014.94 1014.64 1014.33 1014.05 1013.85 1013.76 1013.79 1013.94 1014.18 1014.49 1014.79 1015.05 1015.21 1015.25 1015.13 1014.86 1014.46 1013.95 1013.37 1012.77 1012.19 1011.66 1011.19 1010.82 1010.53 1010.32 1010.18 1010.10 1010.05 1010.02 1010.00 1009.98 1009.96 1009.91 1009.85 1009.78 1009.67 1009.55 1009.40
1014.92 1015.02 1015.04 1014.96 1014.79 1014.54 1014.25 1013.95 1013.70 1013.53 1013.46 1013.51 1013.67 1013.92 1014.22 1014.52 1014.78 1014.95 1015.01 1014.93 1014.71 1014.37 1013.94 1013.44 1012.92 1012.41 1011.93 1011.50 1011.14 1010.84 1010.60 1010.41 1010.26 1010.14 1010.05 1009.98 1009.93 1009.89 1009.86 1009.84 1009.80 1009.75 1009.67 1009.57
1014.68 1014.68 1014.61 1014.47 1014.27 1014.03 1013.77 1013.52 1013.31 1013.19 1013.16 1013.23 1013.40 1013.64 1013.93 1014.21 1014.46 1014.63 1014.70 1014.65 1014.49 1014.23 1013.88 1013.47 1013.04 1012.61 1012.19 1011.80 1011.44 1011.13 1010.85 1010.60 1010.39 1010.21 1010.06 1009.96 1009.89 1009.85 1009.84 1009.85 1009.86 1009.86 1009.84 1009.77
1014.28 1014.19 1014.05 1013.88 1013.68 1013.46 1013.25 1013.07 1012.94 1012.88 1012.90 1013.00 1013.18 1013.41 1013.68 1013.94 1014.16 1014.33 1014.41 1014.39 1014.29 1014.10 1013.83 1013.51 1013.16 1012.79 1012.42 1012.06 1011.70 1011.36 1011.04 1010.74 1010.47 1010.24 1010.05 1009.91 1009.83 1009.80 1009.82 1009.86 1009.92 1009.96 1009.98 1009.96
1013.78 1013.62 1013.44 1013.26 1013.08 1012.92 1012.78 1012.68 1012.64 1012.66 1012.74 1012.88 1013.07 1013.30 1013.54 1013.78 1013.98 1014.13 1014.21 1014.22 1014.16 1014.02 1013.82 1013.57 1013.28 1012.96 1012.62 1012.27 1011.90 1011.53 1011.17 1010.82 1010.50 1010.22 1009.99 1009.84 1009.74 1009.72 1009.75 1009.83 1009.92 1010.00 1010.05 1010.06
1013.27 1013.06 1012.87 1012.70 1012.56 1012.48 1012.43 1012.44 1012.49 1012.59 1012.74 1012.92 1013.13 1013.36 1013.58 1013.79 1013.96 1014.09 1014.16 1014.18 1014.13 1014.03 1013.87 1013.65 1013.40 1013.10 1012.77 1012.41 1012.02 1011.61 1011.21 1010.82 1010.45 1010.14 1009.89 1009.71 1009.61 1009.59 1009.63 1009.71 1009.82 1009.92 1010.00 1010.03
Thickness
5790 5778 5770 5778 5785 5787 5784 5779 5776 5785 5801 5795 5788 5787 5794 5800 5799 5797 5796 5795 5795 5795 5797 5796 5795 5793 5789 5785 5782 5779 5776 5773 5770 5766 5762 5758 5755 5755 5754 5753 5752 5750 5749 5747
5768 5767 5781 5786 5786 5786 5782 5776 5775 5783 5796 5791 5783 5784 5794 5798 5800 5802 5800 5799 5798 5795 5795 5795 5795 5794 5791 5788 5785 5782 5779 5776 5773 5770 5767 5762 5759 5757 5756 5755 5753 5751 5749 5748
5762 5772 5784 5782 5779 5777 5776 5774 5776 5776 5783 5785 5780 5774 5784 5795 5801 5803 5804 5803 5801 5799 5797 5797 5796 5795 5794 5791 5788 5786 5783 5779 5776 5773 5768 5764 5760 5757 5755 5753 5752 5752 5750 5748
5762 5774 5778 5776 5775 5775 5766 5783 5782 5778 5766 5755 5769 5749 5772 5785 5790 5796 5801 5803 5804 5804 5803 5800 5799 5797 5796 5795 5793 5789 5786 5783 5778 5774 5770 5765 5759 5755 5755 5754 5754 5753 5751 5749
5756 5769 5771 5769 5775 5778 5775 5784 5779 5773 5761 5751 5756 5749 5761 5779 5781 5793 5803 5807 5809 5809 5807 5805 5804 5803 5801 5799 5795 5791 5787 5784 5780 5776 5772 5768 5763 5760 5758 5756 5754 5752 5751 5749
5758 5772 5775 5776 5782 5784 5781 5770 5760 5748 5742 5731 5747 5744 5752 5769 5786 5798 5807 5811 5812 5812 5811 5809 5807 5805 5802 5801 5797 5793 5788 5784 5781 5777 5773 5770 5765 5761 5758 5755 5753 5752 5751 5750
5746 5760 5773 5780 5771 5772 5768 5744 5722 5720 5711 5719 5742 5743 5752 5785 5799 5806 5811 5814 5816 5815 5811 5808 5805 5804 5802 5800 5798 5794 5789 5785 5782 5778 5774 5772 5768 5764 5760 5757 5754 5752 5750 5749
5725 5730 5759 5770 5768 5758 5755 5746 5720 5709 5707 5717 5736 5738 5765 5794 5803 5811 5814 5815 5815 5814 5813 5811 5809 5806 5804 5802 5799 5795 5790 5785 5782 5778 5775 5772 5769 5765 5762 5760 5757 5754 5752 5750
5718 5727 5759 5770 5775 5765 5747 5740 5743 5720 5716 5715 5723 5742 5769 5793 5797 5803 5808 5810 5811 5813 5814 5813 5811 5808 5806 5803 5800 5797 5790 5785 5781 5778 5775 5772 5769 5766 5763 5761 5758 5756 5754 5752
5728 5726 5748 5762 5766 5760 5756 5741 5725 5714 5701 5704 5722 5734 5747 5773 5783 5792 5798 5803 5808 5811 5812 5812 5810 5808 5806 5803 5799 5795 5791 5787 5783 5779 5776 5773 5770 5767 5764 5761 5758 5756 5755 5752
5731 5721 5732 5745 5745 5743 5742 5735 5722 5709 5713 5701 5706 5726 5764 5772 5781 5785 5793 5800 5805 5808 5810 5810 5809 5807 5804 5801 5798 5794 5790 5786 5783 5780 5778 5774 5771 5768 5764 5761 5759 5757 5754 5752
5722 5709 5708 5727 5746 5754 5750 5738 5726 5716 5706 5705 5708 5726 5772 5775 5780 5784 5790 5796 5801 5804 5805 5805 5804 5802 5800 5797 5795 5792 5789 5786 5783 5781 5777 5775 5772 5767 5764 5761 5759 5757 5754 5751
5719 5705 5696 5707 5720 5736 5737 5735 5730 5720 5704 5698 5705 5729 5768 5772 5777 5781 5786 5791 5795 5797 5798 5799 5797 5795 5794 5792 5790 5788 5786 5784 5783 5780 5775 5773 5770 5766 5763 5761 5758 5756 5753 5749
5724 5701 5698 5697 5707 5722 5727 5730 5727 5722 5705 5702 5714 5732 5753 5763 5768 5774 5779 5785 5788 5791 5792 5792 5791 5790 5789 5788 5787 5785 5783 5782 5779 5776 5773 5770 5768 5765 5763 5760 5757 5754 5751 5748
5716 5699 5705 5712 5722 5725 5729 5729 5728 5727 5720 5715 5724 5731 5747 5758 5763 5768 5773 5777 5781 5783 5785 5785 5784 5784 5783 5783 5783 5781 5780 5779 5777 5773 5770 5768 5766 5764 5761 5757 5754 5751 5748 5745
5701 5696 5701 5706 5716 5721 5721 5725 5726 5727 5725 5725 5729 5732 5749 5755 5759 5762 5766 5769 5771 5774 5776 5778 5778 5777 5777 5778 5779 5779 5778 5776 5774 5770 5767 5765 5762 5760 5757 5754 5751 5747 5744 5741
5688 5689 5685 5686 5703 5711 5703 5716 5720 5723 5726 5727 5724 5735 5745 5746 5751 5754 5759 5762 5764 5766 5768 5770 5770 5770 5772 5773 5774 5773 5773 5772 5769 5766 5762 5761 5758 5755 5753 5751 5746 5742 5739 5737
5684 5678 5672 5675 5690 5682 5700 5723 5726 5722 5725 5731 5734 5738 5741 5744 5747 5750 5754 5755 5757 5759 5760 5761 5762 5763 5765 5767 5767 5766 5766 5765 5762 5759 5756 5754 5752 5749 5747 5744 5740 5736 5734 5732
5684 5678 5666 5663 5669 5681 5702 5717 5719 5715 5716 5729 5729 5732 5734 5739 5740 5740 5747 5750 5751 5752 5752 5753 5754 5756 5758 5759 5759 5758 5756 5755 5753 5751 5749 5748 5747 5744 5741 5737 5733 5731 5729 5726
5674 5675 5665 5660 5665 5668 5694 5716 5724 5718 5706 5725 5727 5727 5729 5732 5724 5729 5741 5743 5744 5744 5745 5745 5746 5748 5749 5750 5751 5750 5747 5745 5744 5745 5744 5742 5742 5739 5735 5730 5727 5725 5722 5719
5659 5658 5657 5658 5663 5673 5698 5711 5717 5699 5704 5722 5724 5726 5726 5725 5727 5730 5733 5733 5734 5735 5736 5736 5737 5738 5739 5739 5741 5740 5738 5736 5737 5738 5737 5736 5735 5732 5729 5723 5720 5717 5714 5711
5650 5649 5649 5650 5656 5667 5697 5703 5700 5702 5713 5718 5719 5720 5720 5720 5722 5724 5724 5724 5725 5725 5726 5728 5728 5727 5728 5730 5730 5729 5729 5730 5731 5731 5730 5729 5726 5725 5722 5717 5713 5710 5706 5702
5646 5651 5652 5657 5663 5678 5688 5694 5700 5704 5707 5710 5712 5714 5715 5713 5713 5714 5714 5714 5716 5717 5718 5718 5718 5718 5719 5721 5722 5720 5720 5721 5722 5722 5720 5718 5717 5714 5712 5709 5706 5701 5697 5694
5644 5649 5651 5656 5666 5675 5682 5689 5695 5700 5702 5705 5707 5708 5709 5707 5706 5706 5705 5705 5706 5708 5709 5709 5709 5708 5709 5710 5711 5711 5712 5712 5712 5711 5709 5706 5705 5701 5699 5698 5696 5692 5688 5685
5638 5644 5646 5650 5660 5668 5676 5681 5687 5692 5695 5697 5698 5700 5700 5700 5698 5697 5696 5696 5697 5698 5699 5700 5700 5699 5699 5701 5701 5701 5702 5702 5701 5700 5697 5694 5692 5690 5687 5684 5681 5680 5677 5675
5632 5638 5643 5646 5655 5659 5665 5674 5680 5684 5686 5688 5689 5690 5690 5691 5690 5689 5687 5688 5689 5689 5690 5690 5691 5691 5691 5691 5691 5691 5691 5692 5691 5688 5686 5684 5681 5679 5676 5673 5668 5665 5664 5663